DW7915 Weather Reports


Display with metric or nautical units.
time (UTC)temp
F
wind
direction
speed
MPH
gust
MPH
rain 1hr
in
rain 24hr
in
rain mn
in
humidity
%
barometer
mb
20190919142837 62 360 4.0 9.0 0.00 0.00 0.00 45 1028.2
20190919142316 62 333 5.0 10.0 0.00 0.00 0.00 45 1028.1
20190919141821 62 318 3.0 8.0 0.00 0.00 0.00 46 1028.0
20190919141327 62 322 4.0 9.0 0.00 0.00 0.00 45 1028.0
20190919140828 62 330 5.0 9.0 0.00 0.00 0.00 45 1028.1
20190919140331 62 324 3.0 8.0 0.00 0.00 0.00 48 1028.2
20190919135816 62 360 3.0 11.0 0.00 0.04 0.00 48 1028.2
20190919135321 62 360 3.0 10.0 0.00 0.04 0.00 46 1028.2
20190919134825 62 331 4.0 9.0 0.00 0.04 0.00 46 1028.2
20190919134328 62 336 4.0 10.0 0.00 0.04 0.00 48 1028.2
20190919133834 62 10 4.0 10.0 0.00 0.04 0.00 47 1028.2
20190919133317 62 328 3.0 9.0 0.00 0.04 0.00 46 1028.3
20190919132817 62 342 3.0 9.0 0.00 0.04 0.00 48 1028.3
20190919132322 62 313 3.0 9.0 0.00 0.04 0.00 49 1028.3
20190919131828 62 333 5.0 12.0 0.00 0.04 0.00 49 1028.3
20190919131330 61 315 3.0 12.0 0.00 0.04 0.00 50 1028.3
20190919130833 61 320 3.0 5.0 0.00 0.04 0.00 52 1028.3
20190919130314 60 341 1.0 8.0 0.00 0.04 0.00 55 1028.3
20190919125840 60 346 4.0 8.0 0.00 0.04 0.00 53 1028.5
20190919125318 60 330 4.0 10.0 0.00 0.04 0.00 53 1028.6
20190919124817 60 317 5.0 10.0 0.00 0.04 0.00 53 1028.7
20190919124325 60 339 4.0 9.0 0.00 0.04 0.00 53 1028.8